Weather History for MROC - December, 2012

Change the Weather History Date:

Thursday, December 13, 2012

  Actual Average Record
Temperature  
Mean Temperature 72 °F -  
Max Temperature 78 °F 79 °F 84 °F (1999)
Min Temperature 67 °F 64 °F 62 °F (2006)
Cooling Degree Days 8    
Growing Degree Days 22 (Base 50)    
Moisture  
Dew Point 59 °F    
Average Humidity 61    
Maximum Humidity 78    
Minimum Humidity 37    
Precipitation  
Precipitation 0.00 in 0.03 in - ()
Sea Level Pressure  
Sea Level Pressure 29.98 in    
Wind  
Wind Speed 8 mph ()    
Max Wind Speed 17 mph    
Max Gust Speed 30 mph    
Visibility 7.8 miles    
Events      
Averages and records for this station are not official NWS values.
T = Trace of Precipitation, MM = Missing Value Source: Averaged Metar Reports

Daily Weather History Graph

Daily Weather History Graph

Search for Another Location

Airport or City:

Trip Planner

Search our weather history database for the weather conditions in past years. The results will help you decide how hot, cold, wet, or windy it might be!

Date:

Astronomy

Dec. 13, 2012 Rise Set
Actual Time 5:44 AM CST 5:17 PM CST
Civil Twilight 5:22 AM CST 5:40 PM CST
Nautical Twilight 4:55 AM CST 6:06 PM CST
Astronomical Twilight 4:29 AM CST 6:33 PM CST
Moon 5:56 AM CST (12/13) 5:54 PM CST (12/13)
Length of Visible Light 12h 18m
Length of Day
11h 32m
New Moon, 0% of the Moon is Illuminated
Dec 13
New Moon
Dec 19
First Quarter
Dec 28
Full
Jan 4
Last Quarter
Jan 11
New

Hourly Weather History & Observations

Time (CST) Temp. Dew Point Humidity Pressure Visibility Wind Dir Wind Speed Gust Speed Precip Events Conditions
12:00 AM 69 °F 60 °F 64% 29.87 in 12 mi ENE 3.5 mph - -  
12:00 AM 68.0 °F 59.0 °F 73% 30.03 in - ENE 3.5 mph - N/A   Clear
1:00 AM 68.0 °F 59.0 °F 73% 30.01 in - ESE 9.2 mph - N/A   Clear
2:00 AM 69.8 °F 59.0 °F 68% 30.00 in 6.2 mi East 5.8 mph - N/A   Scattered Clouds
3:00 AM 69 °F 60 °F 65% 29.81 in 12 mi East 5.8 mph - -   Scattered Clouds
3:00 AM 69.8 °F 60.8 °F 73% 29.99 in 6.2 mi East 5.8 mph - N/A   Scattered Clouds
4:00 AM 69.8 °F 59.0 °F 68% 29.99 in 6.2 mi ESE 9.2 mph - N/A   Scattered Clouds
5:00 AM 68.0 °F 60.8 °F 78% 29.99 in 6.2 mi East 8.1 mph - N/A   Mostly Cloudy
6:00 AM 68 °F 60 °F 69% 29.87 in 9 mi East 11.5 mph - -   Scattered Clouds
6:00 AM 68.0 °F 60.8 °F 78% 30.01 in 6.2 mi East 11.5 mph 23.0 mph N/A   Mostly Cloudy
7:00 AM 69.8 °F 59.0 °F 68% 30.03 in 6.2 mi East 15.0 mph - N/A   Mostly Cloudy
8:00 AM 73.4 °F 59.0 °F 61% 30.04 in 6.2 mi East 11.5 mph 23.0 mph N/A   Mostly Cloudy
9:00 AM 76 °F 60 °F 49% 29.88 in 12 mi East 12.7 mph - -   Scattered Clouds
9:00 AM 77.0 °F 60.8 °F 57% 30.04 in 6.2 mi East 12.7 mph 25.3 mph N/A   Mostly Cloudy
10:00 AM 78.8 °F 60.8 °F 54% 30.04 in 6.2 mi East 13.8 mph - N/A   Scattered Clouds
10:30 AM 78.8 °F 59.0 °F 51% 30.03 in 6.2 mi East 16.1 mph 29.9 mph N/A   Scattered Clouds
11:00 AM 78.8 °F 59.0 °F 51% 30.03 in 6.2 mi ENE 15.0 mph 27.6 mph N/A   Scattered Clouds
12:00 PM 78 °F 59 °F 42% 29.86 in 12 mi ENE 17.3 mph - -   Scattered Clouds
12:00 PM 78.8 °F 59.0 °F 51% 30.02 in 6.2 mi ENE 17.3 mph 28.8 mph N/A   Scattered Clouds
1:00 PM 78.8 °F 57.2 °F 47% 29.99 in 6.2 mi East 13.8 mph 25.3 mph N/A   Scattered Clouds
2:00 PM 78.8 °F 57.2 °F 47% 29.98 in 6.2 mi ESE 12.7 mph 24.2 mph N/A   Mostly Cloudy
3:00 PM 78 °F 56 °F 37% 29.80 in 12 mi ESE 12.7 mph - -   Scattered Clouds
3:00 PM 78.8 °F 57.2 °F 47% 29.96 in 6.2 mi ESE 12.7 mph - N/A   Scattered Clouds
4:00 PM 75.2 °F 59.0 °F 57% 29.97 in 6.2 mi SE 11.5 mph 23.0 mph N/A   Scattered Clouds
5:00 PM 73.4 °F 59.0 °F 61% 29.98 in 6.2 mi ESE 11.5 mph 23.0 mph N/A   Scattered Clouds
7:00 PM 69.8 °F 59.0 °F 68% 30.01 in - East 10.4 mph 21.9 mph N/A   Clear
8:00 PM 69.8 °F 59.0 °F 68% 30.04 in - ESE 11.5 mph 23.0 mph N/A   Clear
9:00 PM 70 °F 58 °F 58% 29.88 in 12 mi East 8.1 mph - -  
9:00 PM 69.8 °F 59.0 °F 68% 30.05 in - East 8.1 mph - N/A   Clear
10:00 PM 69.8 °F 57.2 °F 64% 30.06 in - ESE 9.2 mph - N/A   Clear
11:00 PM 68.0 °F 57.2 °F 68% 30.06 in - ENE 4.6 mph - N/A   Clear